Location: Unspecified
(0.0000°N, 0.0000°E)
Time: 17:51:43
(UTC+00:00)

STARLINK 1042 - Pass Details

Date: 18 January 2020
Orbit: 548 x 551 km, 53.0° (Epoch: 17 January)

Event Time Altitude Azimuth Distance (km) Brightness Sun altitude
Rises 18:44:29 0° 307° (NW) 2,701 7.6 -8.0°
Reaches altitude 10° 18:46:56 10° 295° (WNW) 1,812 6.9 -8.6°
Maximum altitude 18:50:28 27° 236° (SW) 1,059 6.0 -9.4°
Drops below altitude 10° 18:54:01 10° 176° (S) 1,819 6.5 -10.2°
Sets 18:56:30 0° 164° (SSE) 2,715 7.2 -10.8°
